This demonstration page uses our WeatherBlox Daily Observations layout. Learn more.

39.01783, -85.05884

Hourly Observations for April 21, 2019

Temp ( °F °C ) Dew Point ( °F °C ) Humidity (%) Winds ( mph kmh ) Pressure ( in mb ) Visibility ( mi km ) Precip ( " mm )
12:25 am 00:25 Mostly Cloudy 41 5 38 3.3 89 89 W 6 9 29.91 1013 10 16.09344 0 0
12:52 am 00:52 Cloudy 41 5 39 3.9 93 93 W 3 6 29.88 1012 10 16.09344 0 0
1:33 am 01:33 Cloudy 42 5.6 39 3.9 89 89 Calm 29.94 1014 9 14.484096 0 0
1:52 am 01:52 Cloudy 42 5.6 40 4.4 92 92 Calm 29.88 1012 9 14.484096 0 0
2:34 am 02:34 Cloudy 42 5.6 39 3.9 89 89 Calm 29.94 1014 10 16.09344 0 0
2:52 am 02:52 Cloudy 42 5.6 39 3.9 89 89 Calm 29.91 1013 10 16.09344 0 0
3:52 am 03:52 Cloudy 42 5.6 39 3.9 89 89 SSE 5 7 29.91 1013 10 16.09344 0 0
4:52 am 04:52 Cloudy 43 6.1 40 4.4 89 89 Calm 29.94 1014 10 16.09344 0 0
5:52 am 05:52 Cloudy 43 6.1 40 4.4 89 89 SW 3 6 29.97 1015 10 16.09344 0 0
6:52 am 06:52 Cloudy 43 6.1 40 4.4 89 89 Calm 29.97 1015 10 16.09344 0 0
7:52 am 07:52 Cloudy 43 6.1 40 4.4 89 89 SW 5 7 30.03 1017 10 16.09344 0 0
8:52 am 08:52 Cloudy 44 6.7 41 5 89 89 SSW 6 9 30.03 1017 10 16.09344 0 0
10:40 am 10:40 Partly Cloudy 49 9.4 42 5.6 77 77 WSW 6 9 30.12 1020 10 16.09344 0 0
10:52 am 10:52 Partly Cloudy 50 10 43 6.1 77 77 SW 6 9 30.06 1018 10 16.09344 0 0
11:52 am 11:52 Mostly Sunny 54 12.2 43 6.1 67 67 Calm 30.09 1019 10 16.09344 0 0
12:52 pm 12:52 Mostly Sunny 58 14.4 42 5.6 56 56 W 8 13 30.09 1019 10 16.09344 0 0
1:52 pm 13:52 Mostly Sunny 60 15.6 42 5.6 52 52 VRB 3 6 30.06 1018 10 16.09344 0 0
2:52 pm 14:52 Mostly Sunny 64 17.8 42 5.6 45 45 VRB 3 6 30.06 1018 10 16.09344 0 0
3:52 pm 15:52 Mostly Sunny 66 18.9 40 4.4 39 39 N 7 11 30.09 1019 10 16.09344 0 0
4:52 pm 16:52 Mostly Sunny 67 19.4 41 5 39 39 N 8 13 30.06 1018 10 16.09344 0 0
5:52 pm 17:52 Mostly Sunny 68 20 40 4.4 36 36 Calm 30.09 1019 10 16.09344 0 0
6:52 pm 18:52 Mostly Sunny 65 18.3 40 4.4 40 40 Calm 30.09 1019 10 16.09344 0 0
7:52 pm 19:52 Partly Cloudy 63 17.2 42 5.6 47 47 S 3 6 30.09 1019 10 16.09344 0 0
8:52 pm 20:52 Mostly Clear 61 16.1 41 5 48 48 E 7 11 30.12 1020 10 16.09344 0 0
9:52 pm 21:52 Mostly Clear 59 15 42 5.6 54 54 ESE 5 7 30.12 1020 10 16.09344 0 0
10:52 pm 22:52 Clear 56 13.3 43 6.1 62 62 SE 3 6 30.15 1021 10 16.09344 0 0
11:52 pm 23:52 Clear 55 12.8 43 6.1 64 64 ESE 9 15 30.15 1021 10 16.09344 0 0

Powered by AerisWeather